RH
6 6 6 6 11 13 16 18 18 17 18 17 17 15 16 18 22 36 30 28 19 13 14 14 16 15 14 13 12 12 11 10 11 10 11 10 10 10 10 12 13 14 15 18 19 16 16 18 18
8 7 6 6 9 11 16 16 18 19 20 19 20 19 18 17 19 24 26 27 22 16 15 18 20 19 16 15 13 12 11 10 11 11 13 11 11 12 15 14 14 16 16 16 16 15 12 12 13
10 10 9 7 6 9 18 18 16 18 20 22 22 22 20 19 19 21 27 32 25 23 20 18 19 15 14 14 12 12 12 12 11 13 16 14 13 12 14 15 17 17 17 17 18 18 16 14 10
11 9 9 9 8 8 8 14 18 19 19 23 25 25 24 23 23 23 24 32 28 32 33 32 20 17 15 13 13 13 13 13 13 16 23 23 19 16 14 15 16 18 19 21 22 21 21 20 22
12 11 9 10 12 10 8 8 12 20 22 21 24 26 27 27 26 26 28 34 31 34 75 38 28 22 14 14 14 16 14 13 14 18 27 29 28 24 20 20 19 21 22 25 24 23 24 24 25
12 12 10 9 14 13 12 9 9 11 20 25 25 27 29 30 30 30 28 30 34 31 30 31 27 25 14 13 16 19 18 18 19 25 32 32 34 29 26 26 27 28 29 29 28 31 34 35 36
10 11 9 10 13 14 14 12 12 12 12 14 24 28 30 32 32 34 36 37 36 37 35 37 35 28 18 15 20 20 19 20 22 32 42 43 38 33 32 35 35 36 35 34 34 36 39 39 39
10 11 10 11 14 13 14 14 14 14 14 11 13 24 30 31 35 35 34 36 37 37 36 31 28 29 23 20 22 24 26 25 22 30 51 50 48 39 34 34 34 34 34 34 34 36 37 40 41
10 8 8 12 14 13 14 14 14 12 13 14 14 14 20 32 34 35 38 38 36 34 35 32 29 30 29 32 29 30 27 28 25 27 48 57 55 47 40 37 36 35 35 38 41 42 42 41 40
10 9 11 14 14 13 14 14 14 12 11 12 15 16 15 18 30 37 39 40 39 36 34 35 32 31 33 36 34 37 33 31 25 26 40 62 60 60 49 46 46 46 46 46 46 44 42 40 39
10 11 12 13 13 12 13 14 11 8 8 10 14 13 15 15 16 27 41 43 41 40 37 35 33 32 36 37 36 37 38 37 32 26 43 66 68 63 65 56 52 53 51 53 54 51 48 44 39
10 12 12 13 12 12 12 10 9 9 12 11 10 10 11 11 12 15 26 46 45 43 42 39 31 32 36 38 36 35 34 34 34 27 35 70 70 60 62 63 66 63 61 60 57 54 48 44 45
9 11 12 13 13 12 11 10 9 9 15 14 12 13 15 17 15 14 16 27 53 55 49 43 37 31 34 38 35 32 31 31 34 33 28 57 76 63 58 60 62 65 65 61 58 54 45 46 41
10 12 13 15 15 14 13 13 10 12 15 15 14 13 15 16 17 13 15 17 35 60 56 47 40 35 32 37 38 35 32 31 32 35 38 43 71 70 61 62 64 66 65 61 58 54 46 46 40
11 12 13 19 19 13 14 12 11 13 12 11 11 13 15 15 16 19 16 18 19 43 62 57 44 39 38 32 33 34 33 33 33 35 42 58 62 71 63 63 71 70 71 64 58 52 47 48 41
11 11 10 16 14 13 12 11 14 16 15 14 13 10 11 14 14 17 19 14 15 18 34 55 53 47 42 40 33 29 26 26 26 34 40 67 69 72 73 71 76 82 84 67 58 54 52 50 33
9 8 8 9 9 10 10 9 13 16 14 13 14 15 13 11 12 12 16 16 14 15 21 44 59 55 46 41 39 36 33 21 19 26 36 75 78 78 78 79 81 85 83 67 60 58 53 49 18
8 7 8 10 10 12 11 8 10 12 12 11 12 13 15 15 13 12 11 20 17 14 15 20 56 65 57 47 40 31 32 36 24 28 35 58 84 86 79 80 85 86 80 69 64 58 53 38 20
10 9 8 9 10 11 11 6 10 14 15 14 13 13 16 19 20 14 11 20 21 16 15 14 26 71 65 54 47 40 29 35 45 42 38 46 81 92 84 82 87 92 86 75 69 62 53 44 38
11 10 10 9 10 8 7 5 9 11 14 17 16 14 15 19 24 20 14 14 25 21 17 14 16 32 69 64 52 45 35 40 54 51 60 66 81 87 83 85 88 82 77 73 69 65 53 47 43
14 12 14 13 13 12 11 6 12 12 14 16 19 17 18 20 30 28 21 15 24 22 17 15 14 20 33 62 61 52 45 36 37 29 47 70 75 84 87 84 83 78 75 71 67 63 52 48 46
16 17 16 16 15 15 15 12 12 12 12 13 20 24 21 24 29 34 26 18 21 20 18 18 15 17 22 36 62 58 49 40 44 45 37 56 78 75 83 88 76 70 72 63 63 58 47 46 43
18 17 20 23 24 23 20 22 10 12 14 18 21 24 32 30 28 39 34 22 22 21 17 20 18 17 18 23 60 61 50 43 35 55 70 65 60 53 46 50 56 60 52 56 57 47 41 38 38
30 28 28 28 30 25 23 24 10 18 19 21 23 25 42 39 36 31 41 29 25 22 20 18 20 18 17 20 37 65 56 48 42 55 65 53 59 47 47 45 45 46 50 48 41 41 36 33 30
29 34 31 26 20 19 18 19 14 15 16 19 28 33 34 51 43 32 43 38 32 26 23 22 21 20 18 20 26 64 64 50 61 62 63 56 35 31 31 36 37 38 37 40 38 33 33 33 38
36 25 20 19 17 23 26 17 21 24 21 20 14 29 48 48 57 45 38 44 36 32 28 29 27 22 19 21 24 59 63 52 41 48 60 48 35 30 33 46 40 36 35 31 33 38 39 39 34
20 19 22 26 35 36 31 24 21 37 35 44 41 27 36 61 57 57 39 44 40 32 29 32 29 25 20 20 23 56 64 57 53 50 58 54 41 50 36 23 23 24 28 36 47 46 39 38 35
18 23 39 63 54 51 39 34 35 57 58 52 60 74 37 48 61 53 53 39 43 34 27 30 29 25 21 21 25 55 66 59 53 61 73 74 58 43 43 36 28 30 42 53 50 43 44 36 35
34 51 74 88 98 98 76 54 71 94 58 77 53 49 54 32 54 54 49 43 38 34 30 31 27 24 21 21 25 53 68 63 61 70 84 79 76 72 50 34 34 50 56 51 52 46 37 39 71
58 82 98 100 100 96 97 44 100 100 78 69 52 48 58 38 46 53 52 49 39 39 35 31 26 23 22 25 31 57 72 68 64 73 77 75 90 69 40 40 56 59 55 60 46 37 56 89 85
Wind_Speed
24 26 27 29 29 28 27 25 24 22 21 18 17 18 20 22 23 24 19 20 19 19 19 20 19 18 19 20 18 16 15 15 14 13 11 11 12 13 13 13 12 12 13 14 16 16 18 19 20
23 24 26 29 31 29 28 29 29 26 23 21 19 18 19 23 22 23 22 21 19 20 19 19 20 20 20 20 19 17 17 16 16 14 13 12 12 12 12 12 12 13 14 14 16 18 19 21 23
23 23 25 26 28 28 30 32 32 30 27 24 21 20 21 20 20 21 22 22 22 21 21 20 20 20 20 20 19 18 18 18 17 16 14 13 13 13 13 14 14 15 15 17 17 18 19 19 20
25 27 28 27 19 23 30 36 35 33 31 27 23 23 22 21 21 21 21 23 23 20 22 23 22 22 23 22 21 20 19 19 18 16 15 14 13 13 14 15 16 17 17 17 17 16 16 16 16
30 30 31 27 19 20 26 32 36 35 34 31 28 27 25 25 22 22 22 23 23 22 22 24 23 24 24 24 22 20 20 20 19 18 17 16 15 15 15 16 16 17 17 17 19 19 21 22 22
34 32 33 27 23 23 26 29 30 34 36 34 32 30 27 25 23 22 22 24 25 23 24 25 24 24 24 24 22 21 21 20 20 19 19 18 17 16 16 16 16 15 15 16 17 17 18 18 19
35 32 33 30 27 30 29 32 29 31 31 36 35 33 31 28 27 25 24 24 26 26 24 26 26 26 25 23 21 22 22 22 21 22 21 19 18 17 17 17 16 17 17 16 18 18 19 19 19
34 33 34 29 27 29 34 36 35 33 35 33 35 38 37 32 30 29 28 28 28 27 25 24 26 27 25 23 21 21 22 21 22 23 23 21 19 18 18 18 17 17 17 17 17 17 17 17 17
35 34 31 25 27 30 35 39 40 38 37 37 35 33 36 35 34 34 32 31 29 28 27 26 27 27 25 25 23 22 22 22 23 24 24 23 22 20 19 19 16 16 16 17 18 19 20 23 25
34 31 25 23 25 32 37 41 40 39 36 37 37 35 32 34 38 37 36 34 32 31 28 28 27 28 28 28 26 24 22 21 22 24 25 25 25 24 22 21 19 19 19 20 21 24 26 27 30
33 30 28 25 27 30 34 36 38 35 33 31 35 38 36 35 34 37 39 36 36 33 31 31 30 31 31 30 29 26 24 22 21 23 25 26 27 27 25 23 23 22 23 22 24 26 27 29 29
33 30 27 25 27 30 31 33 34 35 29 33 33 32 32 33 35 34 37 40 38 35 32 32 32 34 33 32 32 28 26 24 22 23 27 28 29 28 27 26 26 25 24 24 26 26 28 27 28
32 28 26 25 26 27 30 31 33 37 33 34 34 32 31 31 33 34 35 37 38 36 35 32 33 32 35 36 34 31 29 26 24 25 27 31 30 29 28 27 27 26 25 26 27 28 28 28 31
31 27 25 25 25 27 29 32 36 34 34 37 37 35 34 33 31 32 31 34 36 39 37 35 33 33 33 35 36 35 32 30 27 27 29 32 33 29 29 28 28 27 27 27 29 30 30 31 31
31 28 27 25 25 25 27 27 27 35 41 43 42 38 35 34 33 31 31 32 35 39 41 37 36 36 34 35 36 36 35 34 29 29 31 32 33 30 29 29 29 29 28 30 30 31 31 32 33
33 30 28 27 27 28 29 25 27 31 35 41 49 47 42 40 37 33 33 33 36 37 39 42 38 36 36 36 36 35 35 34 33 31 32 33 33 31 29 29 29 29 30 31 31 32 33 35 37
30 29 28 29 30 29 29 30 26 30 31 34 39 47 50 47 44 40 35 36 38 40 41 43 41 38 38 38 37 36 35 32 34 34 32 34 34 32 30 29 30 30 31 32 32 33 35 38 36
28 27 26 25 27 27 29 33 31 31 32 32 35 39 45 50 48 44 39 37 39 41 42 42 43 40 41 39 36 35 36 33 35 36 33 35 36 35 31 32 32 32 32 33 33 35 36 36 34
25 27 30 31 32 34 36 40 39 38 37 37 38 39 45 49 50 48 44 39 39 40 42 41 42 42 43 40 37 35 34 37 36 37 35 36 37 37 35 34 34 34 33 35 36 37 37 36 35
27 29 32 36 39 43 43 43 45 47 46 45 44 44 45 48 51 53 50 44 40 40 43 41 39 43 45 41 38 36 35 38 38 35 34 34 36 37 37 36 35 35 35 37 39 40 39 39 38
30 33 37 41 45 48 52 51 54 56 54 50 48 46 47 50 50 51 53 50 42 41 42 41 40 41 47 44 40 38 38 36 36 36 34 34 37 39 40 39 37 37 38 40 42 42 42 42 43
35 38 43 47 51 53 54 63 57 56 55 53 51 49 49 50 53 51 52 53 44 41 44 42 37 39 45 44 41 38 38 37 37 36 36 36 36 38 40 40 40 41 43 43 44 44 45 46 47
39 43 45 49 52 56 57 63 57 57 54 51 51 52 50 53 52 52 51 54 48 44 44 44 37 37 44 43 42 40 37 36 37 37 34 35 38 38 39 39 41 42 44 45 46 47 47 48 49
41 43 45 49 52 57 55 61 55 56 57 57 54 52 51 53 53 53 52 53 50 48 46 44 37 40 44 43 43 40 37 37 38 34 33 37 38 38 38 40 41 42 43 45 47 47 48 48 50
39 42 46 47 50 54 47 50 57 51 60 61 63 58 56 53 53 52 53 52 50 47 45 41 39 40 41 41 41 40 39 38 37 35 35 36 38 39 41 42 42 43 44 45 46 47 48 49 52
36 38 37 42 42 43 50 39 34 32 44 40 64 65 58 53 52 51 54 53 51 48 47 40 40 40 40 39 39 39 39 38 36 37 37 38 38 40 41 42 42 42 43 44 45 47 49 52 53
33 34 36 40 45 46 47 43 39 34 38 43 36 44 50 52 50 50 51 55 52 49 46 40 42 42 41 40 38 39 39 36 36 37 37 37 37 38 41 43 43 42 43 43 45 48 52 53 55
32 32 36 39 44 49 50 48 46 40 39 46 34 26 33 50 49 48 48 51 52 49 45 41 42 43 43 42 40 41 39 36 36 37 37 38 37 38 39 41 41 41 42 44 47 50 53 55 56
30 31 36 41 43 47 55 58 53 42 33 33 33 32 29 41 46 47 44 45 51 47 44 41 42 43 43 41 40 40 38 36 35 36 38 38 39 39 40 40 40 41 43 46 49 52 54 55 57
30 33 37 43 44 49 52 49 41 34 26 23 23 31 34 37 46 46 41 44 44 43 41 41 42 43 44 42 41 41 38 36 36 38 38 39 40 41 40 39 40 42 45 49 51 53 54 56 59
Wind_Direction
242 242 241 242 243 243 244 243 246 246 249 252 249 249 251 253 255 251 250 242 244 248 252 252 249 251 251 253 256 261 266 270 270 267 260 249 245 248 249 246 246 248 251 253 261 264 267 270 274
240 241 245 244 242 242 243 246 244 244 245 244 244 246 244 249 251 254 254 251 245 248 247 246 249 249 251 253 256 258 261 268 275 276 271 265 255 249 246 247 252 256 257 258 260 263 265 267 269
246 247 246 245 246 245 242 244 245 244 243 242 240 243 248 247 251 255 255 254 251 253 257 255 249 249 250 251 252 257 262 267 272 273 272 267 265 261 259 254 251 252 255 258 259 263 267 269 273
249 251 252 249 248 248 246 244 245 243 243 243 243 243 245 248 249 249 253 255 254 260 262 265 267 261 250 248 250 255 260 270 271 269 269 264 262 262 261 259 257 256 258 258 260 263 265 266 272
248 249 250 248 242 245 247 245 243 245 245 242 242 243 243 248 247 249 250 255 261 261 256 261 265 267 259 255 253 253 257 261 261 261 259 260 263 264 261 260 259 259 259 262 265 268 270 271 273
250 250 251 249 241 240 245 246 243 244 246 244 242 242 243 247 250 250 251 251 257 264 266 266 262 261 262 264 265 263 258 257 258 254 254 252 254 258 261 262 260 261 263 267 270 272 276 278 280
249 248 250 246 237 237 243 250 248 248 248 247 246 244 243 243 245 245 247 249 254 259 269 268 264 260 259 260 262 266 264 261 255 251 251 254 257 256 256 256 261 264 265 268 271 275 274 275 277
249 247 249 250 244 234 240 247 250 249 248 249 245 242 243 242 243 244 244 246 249 252 258 260 260 254 254 257 257 259 263 264 260 255 251 250 254 256 254 252 254 259 265 267 268 267 271 276 281
247 247 251 252 244 234 235 242 248 249 248 248 249 248 246 244 244 246 247 248 251 250 253 259 255 251 252 250 249 253 262 265 264 257 250 249 250 252 250 252 249 253 260 264 267 273 280 284 287
244 248 249 243 236 230 228 239 247 251 252 248 250 251 249 247 245 246 248 250 252 251 250 254 253 251 249 250 251 248 250 259 262 261 257 251 249 248 250 254 254 258 263 268 277 285 289 290 291
243 248 246 239 237 234 234 239 245 250 252 252 250 250 251 253 251 247 247 251 253 256 256 251 251 248 247 250 252 252 255 261 265 259 254 253 251 250 251 256 261 263 269 276 282 287 290 293 293
243 244 245 241 240 240 237 239 244 252 255 252 250 251 254 256 255 251 248 247 250 253 258 259 254 250 249 250 251 250 254 259 266 264 255 252 251 252 256 258 262 266 271 276 281 285 288 291 299
239 240 239 238 238 238 238 240 246 250 252 254 253 254 257 258 257 255 251 248 248 250 251 254 255 254 255 255 257 259 258 259 263 267 260 253 253 252 252 256 260 265 268 272 278 281 284 291 297
234 235 235 235 237 237 239 237 247 247 252 255 255 254 255 254 253 254 255 251 247 249 250 249 249 251 251 256 259 261 263 263 262 267 262 255 254 254 252 253 256 261 266 270 275 279 283 289 297
233 235 237 238 236 237 241 238 253 244 246 254 257 257 255 253 252 253 251 249 246 244 249 249 249 249 251 252 255 257 260 264 263 264 263 257 254 254 254 255 256 260 264 268 273 280 284 291 294
233 236 240 243 240 240 243 248 249 250 250 252 255 255 252 250 253 252 251 245 245 244 244 248 250 252 251 250 254 257 258 264 263 258 260 257 254 255 256 257 259 262 265 267 275 280 287 290 289
232 237 239 241 245 246 250 257 252 252 254 256 255 257 257 253 252 254 251 249 244 243 243 243 246 249 251 253 253 255 259 261 257 254 257 254 254 255 255 258 259 262 266 269 275 283 286 290 286
231 240 245 246 249 250 250 256 254 253 257 262 264 264 260 259 253 253 253 247 245 245 244 243 242 246 250 253 254 256 257 261 259 253 254 250 252 254 256 258 261 264 268 273 278 282 286 291 288
239 244 250 253 256 254 258 257 263 268 267 266 263 260 258 256 252 248 248 249 245 244 248 245 241 243 247 252 254 254 255 257 261 256 255 254 252 254 256 258 262 265 269 274 279 283 286 291 290
247 251 256 258 261 263 262 261 270 272 274 269 261 259 258 254 250 247 247 250 243 243 246 247 241 240 244 245 250 254 257 256 261 261 259 258 255 257 257 258 263 267 271 275 278 282 285 289 291
259 264 267 268 269 270 270 264 266 267 269 268 266 259 257 254 249 246 244 247 245 241 243 245 241 238 243 243 245 250 254 256 257 260 258 256 257 259 258 259 265 268 272 275 279 282 284 288 290
268 270 271 272 273 274 272 272 268 269 266 262 264 261 255 252 247 243 240 241 240 238 239 242 242 239 245 244 245 248 251 255 251 255 256 257 260 260 259 261 266 269 272 276 279 282 284 286 289
272 272 273 275 277 276 276 276 273 273 268 264 260 257 253 249 246 241 239 237 234 233 235 239 241 238 245 248 246 248 252 255 252 252 257 258 259 261 263 265 266 269 274 277 279 282 285 287 290
275 278 278 278 279 280 281 280 274 274 269 266 258 251 249 246 244 238 235 236 233 233 236 239 239 236 242 245 246 248 253 255 255 255 257 258 260 263 264 265 268 271 274 277 280 284 287 289 291
281 282 282 283 284 284 286 283 284 276 269 260 261 252 246 243 240 236 230 232 230 230 235 236 237 237 240 243 245 246 252 255 256 256 258 260 262 263 265 267 270 274 277 281 284 285 288 290 291
280 283 286 284 287 290 290 296 302 296 270 271 253 253 244 242 236 234 227 228 229 227 231 232 234 237 237 240 243 246 251 254 257 257 257 260 262 265 267 270 273 277 280 283 284 287 289 291 294
280 277 276 285 287 284 288 292 293 298 275 270 276 249 241 236 235 231 227 226 228 229 231 229 231 234 234 236 240 243 249 250 255 257 258 261 265 267 271 274 276 279 282 284 286 289 291 294 296
278 282 290 292 287 288 293 294 290 291 286 274 278 240 232 228 229 228 228 224 226 230 229 225 227 232 232 234 237 241 248 250 255 258 259 263 267 271 275 278 280 281 283 286 289 291 294 296 298
291 295 292 287 293 297 297 292 292 296 281 264 271 245 216 220 218 225 223 224 224 228 226 223 225 230 233 235 238 241 248 252 255 258 261 265 271 276 280 280 280 283 286 288 291 294 295 297 299
291 295 291 291 297 295 291 303 293 285 269 259 249 233 216 205 208 218 215 219 220 224 225 221 223 226 231 233 238 241 247 251 254 259 264 270 274 280 280 280 283 285 288 290 293 294 297 300 301